ON7CFI Weather Reports


time (UTC)temp
C
wind
direction
speed
KPH
gust
KPH
rain 1hr
cm
rain 24hr
cm
rain mn
cm
humidity
%
barometer
mb
20260506204003 9 68 1.6 9.7 0.00 1.83 1.35 88 1011.2
20260506203503 9 59 3.2 9.7 0.00 1.85 1.35 87 1011.1
20260506203003 9 57 3.2 8.0 0.00 1.91 1.35 86 1011.1
20260506202503 9 62 3.2 12.9 0.00 1.93 1.35 86 1011.1
20260506202004 10 64 1.6 12.9 0.00 1.93 1.35 85 1011.1
20260506201503 10 62 1.6 6.4 0.00 1.98 1.35 84 1011.2
20260506201217 10 62 1.6 6.4 0.00 1.98 1.35 84 1011.1
20260506200503 10 81 1.6 4.8 0.00 2.03 1.35 84 1011.1
20260506200003 10 66 1.6 8.0 0.00 2.03 1.35 83 1011.1
20260506195503 10 55 1.6 8.0 0.00 2.06 1.35 83 1011.0
20260506195003 10 59 1.6 6.4 0.00 2.08 1.35 83 1010.9
20260506194718 10 59 1.6 6.4 0.00 2.08 1.35 83 1010.9
20260506194008 10 75 1.6 6.4 0.00 2.11 1.35 82 1010.9
20260506193504 10 77 1.6 4.8 0.00 2.13 1.35 82 1010.8
20260506193004 10 68 0.0 3.2 0.00 2.16 1.35 82 1010.8
20260506192503 10 64 1.6 4.8 0.00 2.16 1.35 82 1010.7
20260506192003 10 66 1.6 4.8 0.00 2.18 1.35 81 1010.5
20260506191503 10 65 1.6 4.8 0.00 2.21 1.35 81 1010.5
20260506191218 10 65 1.6 4.8 0.00 2.21 1.35 81 1010.5
20260506190503 10 73 1.6 4.8 0.00 2.24 1.35 80 1010.3
20260506190004 10 77 1.6 3.2 0.00 2.26 1.35 80 1010.3
20260506185503 10 80 1.6 3.2 0.00 2.29 1.35 79 1010.2
20260506185003 10 70 1.6 8.0 0.00 2.31 1.35 78 1010.2
20260506184509 10 76 3.2 8.0 0.00 2.31 1.35 78 1010.2
20260506184003 10 81 3.2 8.0 0.00 2.31 1.35 77 1010.2
20260506183504 11 74 3.2 8.0 0.00 2.34 1.35 77 1010.1
20260506183003 11 73 3.2 8.0 0.00 2.34 1.35 76 1010.0
20260506182503 11 74 1.6 6.4 0.00 2.34 1.35 75 1010.0
20260506182003 11 79 1.6 6.4 0.00 2.34 1.35 75 1009.9
20260506181503 11 73 1.6 6.4 0.00 2.36 1.35 74 1009.8
20260506181003 11 65 3.2 6.4 0.00 2.36 1.35 72 1009.8
20260506180503 11 66 3.2 9.7 0.00 2.36 1.35 72 1009.7
20260506180004 12 70 1.6 9.7 0.00 2.36 1.35 72 1009.6
20260506175503 12 69 3.2 11.3 0.00 2.39 1.35 72 1009.5
20260506175218 12 66 3.2 11.3 0.00 2.39 1.35 71 1009.3
20260506174717 12 69 3.2 11.3 0.00 2.39 1.35 72 1009.3
20260506174003 12 61 3.2 11.3 0.00 2.39 1.35 73 1009.2
20260506173504 12 61 3.2 11.3 0.00 2.39 1.35 72 1009.2
20260506173003 12 65 3.2 11.3 0.00 2.39 1.35 72 1009.1
20260506172503 12 68 3.2 11.3 0.00 2.39 1.35 72 1009.2
20260506172218 12 72 3.2 11.3 0.00 2.39 1.35 73 1009.2
20260506171503 12 71 1.6 6.4 0.00 2.39 1.35 74 1009.1
20260506171003 12 73 1.6 4.8 0.00 2.39 1.35 75 1009.1
20260506170503 12 79 1.6 6.4 0.00 2.39 1.35 75 1009.1
20260506170003 12 83 1.6 6.4 0.00 2.39 1.35 75 1009.0
20260506165503 12 73 1.6 4.8 0.00 2.39 1.35 75 1009.0
20260506165004 12 58 1.6 4.8 0.00 2.39 1.35 75 1008.9
20260506164503 12 70 1.6 4.8 0.00 2.39 1.35 74 1008.9
20260506164003 12 81 3.2 11.3 0.00 2.39 1.35 73 1008.8
20260506163503 12 78 3.2 11.3 0.00 2.39 1.35 73 1008.8
20260506163217 12 84 3.2 11.3 0.00 2.39 1.35 73 1008.8
20260506162503 13 99 1.6 6.4 0.00 2.39 1.35 73 1008.8
20260506162003 13 87 3.2 8.0 0.00 2.39 1.35 72 1008.8
20260506161503 13 80 3.2 8.0 0.00 2.39 1.35 71 1008.8
20260506161003 13 76 3.2 12.9 0.00 2.39 1.35 71 1008.7
20260506160503 13 78 3.2 12.9 0.00 2.39 1.35 71 1008.8
20260506160004 13 102 3.2 9.7 0.00 2.39 1.35 71 1008.7
20260506155504 13 99 3.2 9.7 0.00 2.39 1.35 73 1008.7
20260506155003 13 85 4.8 9.7 0.00 2.39 1.35 73 1008.6
20260506154503 13 86 3.2 9.7 0.00 2.39 1.35 73 1008.6
20260506154003 13 87 3.2 6.4 0.00 2.39 1.35 74 1008.7
20260506153503 13 81 3.2 9.7 0.00 2.39 1.35 75 1008.6
20260506153003 13 75 1.6 9.7 0.00 2.39 1.35 74 1008.6
20260506152718 13 76 1.6 9.7 0.00 2.39 1.35 74 1008.7
20260506152003 13 81 3.2 6.4 0.00 2.39 1.35 70 1008.6
20260506151503 13 67 3.2 11.3 0.00 2.39 1.35 69 1008.6
20260506151217 13 58 3.2 11.3 0.00 2.39 1.35 69 1008.6
20260506150503 13 63 3.2 8.0 0.00 2.39 1.35 70 1008.5
20260506150004 13 57 3.2 8.0 0.00 2.39 1.35 71 1008.5
20260506145503 13 59 3.2 8.0 0.00 2.39 1.35 70 1008.4
20260506145003 13 69 1.6 6.4 0.00 2.39 1.35 72 1008.4
20260506144503 13 57 1.6 4.8 0.00 2.39 1.35 71 1008.4
20260506144217 13 55 1.6 6.4 0.00 2.39 1.35 73 1008.4
20260506143503 13 66 1.6 6.4 0.00 2.39 1.35 74 1008.6
20260506143003 13 69 3.2 8.0 0.00 2.39 1.35 73 1008.6
20260506142503 13 72 4.8 11.3 0.00 2.39 1.35 71 1008.6
20260506142004 13 50 4.8 14.5 0.00 2.39 1.35 70 1008.6
20260506141503 14 352 3.2 14.5 0.00 2.39 1.35 71 1008.6
20260506141218 14 349 3.2 8.0 0.00 2.39 1.35 71 1008.6
20260506140503 14 16 3.2 8.0 0.00 2.39 1.35 73 1008.7
20260506140003 14 16 3.2 6.4 0.00 2.39 1.35 75 1008.7
20260506135717 14 350 3.2 6.4 0.00 2.39 1.35 75 1008.6
20260506135218 13 314 3.2 8.0 0.00 2.39 1.35 75 1008.6
20260506134503 13 311 3.2 12.9 0.00 2.39 1.35 77 1008.5
20260506134003 13 50 1.6 9.7 0.00 2.39 1.35 77 1008.6
20260506133503 13 44 3.2 9.7 0.00 2.39 1.35 76 1008.5
20260506133003 13 360 3.2 11.3 0.00 2.39 1.35 77 1008.6
20260506132503 13 12 3.2 11.3 0.00 2.39 1.35 76 1008.6
20260506132003 13 49 3.2 9.7 0.00 2.39 1.35 77 1008.5
20260506131503 13 54 3.2 9.7 0.00 2.39 1.35 77 1008.5
20260506131003 12 344 3.2 6.4 0.00 2.39 1.35 80 1008.6
20260506130503 12 350 3.2 11.3 0.00 2.39 1.35 80 1008.6
20260506130003 12 36 1.6 11.3 0.00 2.39 1.35 81 1008.6
20260506125503 12 58 3.2 12.9 0.00 2.39 1.35 83 1008.5
20260506125003 12 74 3.2 12.9 0.00 2.39 1.35 83 1008.5
20260506124503 12 75 1.6 6.4 0.00 2.39 1.35 86 1008.5
20260506124003 12 67 3.2 6.4 0.00 2.39 1.35 85 1008.4
20260506123508 12 63 1.6 6.4 0.00 2.39 1.35 85 1008.4
20260506123004 12 36 1.6 6.4 0.00 2.39 1.35 84 1008.4
20260506122503 12 360 1.6 4.8 0.00 2.39 1.35 84 1008.3
20260506122218 12 7 0.0 4.8 0.00 2.39 1.35 85 1008.3
20260506121717 12 58 1.6 11.3 0.00 2.39 1.35 84 1008.3
20260506121003 12 62 1.6 11.3 0.00 2.39 1.35 84 1008.3
20260506120503 12 71 3.2 6.4 0.00 2.39 1.35 85 1008.2
20260506120003 12 65 1.6 6.4 0.00 2.39 1.35 86 1008.2
20260506115503 12 355 0.0 4.8 0.00 2.39 1.35 88 1008.3
20260506115003 11 84 0.0 4.8 0.00 2.39 1.35 87 1008.2
20260506114503 11 343 1.6 4.8 0.00 2.39 1.35 86 1008.2
20260506114218 11 357 1.6 4.8 0.00 2.39 1.35 85 1008.2
20260506113503 12 36 1.6 4.8 0.00 2.39 1.35 86 1008.2
20260506113003 12 37 1.6 4.8 0.00 2.39 1.35 85 1008.1
20260506112503 12 70 3.2 6.4 0.00 2.39 1.35 85 1008.2
20260506112003 12 82 3.2 8.0 0.00 2.39 1.35 84 1008.2
20260506111503 12 83 3.2 8.0 0.00 2.39 1.35 85 1008.3
20260506111003 12 75 3.2 11.3 0.00 2.39 1.35 88 1008.3
20260506110503 11 50 3.2 11.3 0.00 2.39 1.35 89 1008.3
20260506110003 11 349 3.2 11.3 0.00 2.39 1.35 90 1008.4
20260506105718 11 320 3.2 8.0 0.00 2.39 1.35 91 1008.4
20260506105003 11 2 3.2 8.0 0.00 2.39 1.35 92 1008.5
20260506104503 11 59 3.2 11.3 0.00 2.39 1.35 92 1008.4
20260506104003 11 62 3.2 11.3 0.00 2.39 1.35 92 1008.4
20260506103503 11 63 1.6 8.0 0.00 2.39 1.35 94 1008.4
20260506103003 11 25 3.2 8.0 0.00 2.39 1.35 94 1008.4
20260506102503 10 347 3.2 6.4 0.00 2.39 1.35 94 1008.4
20260506102003 10 62 3.2 6.4 0.00 2.39 1.35 94 1008.4
20260506101718 10 67 3.2 8.0 0.00 2.39 1.35 94 1008.4
20260506101003 10 348 3.2 8.0 0.00 2.39 1.35 95 1008.3
20260506100503 10 7 3.2 9.7 0.00 2.39 1.35 95 1008.2
20260506100003 10 59 3.2 9.7 0.00 2.39 1.35 95 1008.2
20260506095503 10 59 3.2 6.4 0.00 2.39 1.35 96 1008.2
20260506095003 10 64 3.2 14.5 0.00 2.39 1.35 96 1008.2
20260506094503 10 60 3.2 14.5 0.00 2.39 1.35 96 1008.3
20260506094003 10 44 3.2 8.0 0.03 2.39 1.35 96 1008.1
20260506093503 9 60 3.2 11.3 0.03 2.39 1.35 97 1008.1
20260506093003 9 74 3.2 11.3 0.03 2.39 1.35 97 1008.1
20260506092503 9 73 3.2 9.7 0.03 2.39 1.35 97 1008.0
20260506092004 9 66 3.2 6.4 0.03 2.39 1.35 97 1008.0
20260506091503 8 63 3.2 6.4 0.03 2.39 1.35 97 1008.0
20260506091219 8 47 1.6 6.4 0.03 2.39 1.35 97 1008.0
20260506090503 8 58 3.2 16.1 0.03 2.39 1.35 97 1007.9
20260506090003 8 48 3.2 16.1 0.05 2.39 1.35 97 1007.9
20260506085503 8 44 3.2 8.0 0.05 2.39 1.35 97 1007.9
20260506085003 8 70 3.2 12.9 0.05 2.39 1.35 97 1007.8
20260506084503 8 73 3.2 12.9 0.05 2.41 1.35 97 1007.7
20260506084003 8 68 3.2 9.7 0.05 2.39 1.32 97 1007.8
20260506083503 8 56 3.2 9.7 0.05 2.39 1.32 97 1007.7
20260506083003 8 57 3.2 12.9 0.05 2.39 1.32 97 1007.7
20260506082504 8 76 3.2 12.9 0.08 2.39 1.32 97 1007.6
20260506082003 8 78 4.8 8.0 0.08 2.39 1.32 97 1007.6
20260506081503 8 71 4.8 12.9 0.08 2.39 1.32 97 1007.6
20260506081218 8 67 4.8 12.9 0.08 2.39 1.32 97 1007.5
20260506080503 8 70 4.8 11.3 0.10 2.39 1.32 97 1007.6
20260506073503 8 65 3.2 12.9 0.10 2.34 1.27 97 1007.4
20260506073003 8 19 1.6 4.8 0.10 2.34 1.27 97 1007.4
20260506072508 8 17 3.2 12.9 0.10 2.31 1.24 97 1007.3
20260506072003 8 341 3.2 12.9 0.10 2.31 1.24 97 1007.3
20260506071503 8 319 3.2 12.9 0.13 2.31 1.24 97 1007.3
20260506071003 8 356 3.2 8.0 0.13 2.31 1.24 97 1007.3
20260506070503 8 349 3.2 11.3 0.10 2.31 1.22 97 1007.3
20260506062503 8 337 1.6 6.4 0.08 2.21 1.14 97 1006.9
20260506062003 8 4 1.6 6.4 0.08 2.24 1.14 97 1006.9
20260506061503 8 21 1.6 6.4 0.05 2.21 1.12 97 1006.8
20260506061003 8 326 1.6 8.0 0.05 2.24 1.12 97 1006.9
20260506060508 8 322 1.6 8.0 0.05 2.24 1.12 97 1006.9
20260506051003 8 344 1.6 8.0 0.08 2.21 1.07 97 1006.9
20260506050503 8 324 1.6 8.0 0.08 2.24 1.07 97 1006.9
20260506045003 8 69 3.2 9.7 0.10 2.24 1.04 97 1006.8
20260506044503 8 70 1.6 11.3 0.10 2.26 1.04 97 1006.8
20260506044003 8 71 1.6 11.3 0.13 2.26 1.04 97 1006.8
20260506043503 8 46 1.6 6.4 0.13 2.26 1.04 97 1006.8
20260506043003 7 50 1.6 8.0 0.10 2.26 1.02 97 1006.8
20260506042503 8 58 1.6 8.0 0.10 2.26 1.02 97 1006.7
20260506042217 7 62 1.6 9.7 0.10 2.26 1.02 97 1006.7
20260506041503 8 55 1.6 9.7 0.10 2.24 0.99 97 1006.7
20260506041217 8 52 1.6 6.4 0.10 2.24 0.99 97 1006.7
20260506040503 8 77 1.6 6.4 0.08 2.21 0.99 97 1006.7
20260506040003 8 71 1.6 6.4 0.08 2.21 0.97 97 1006.8
20260506035718 8 50 1.6 6.4 0.08 2.21 0.97 97 1006.8
20260506035004 8 350 1.6 9.7 0.05 2.18 0.94 97 1006.7
20260506034503 8 356 1.6 9.7 0.05 2.18 0.94 97 1006.8
20260506034003 8 342 1.6 8.0 0.05 2.16 0.91 97 1006.9
20260506033717 8 339 3.2 8.0 0.05 2.16 0.91 97 1006.9
20260506033003 8 33 1.6 6.4 0.05 2.16 0.91 97 1006.9
20260506032503 8 51 1.6 6.4 0.05 2.16 0.91 97 1006.9
20260506032003 8 355 1.6 6.4 0.08 2.16 0.91 97 1006.9
20260506031503 8 16 1.6 6.4 0.05 2.13 0.89 96 1007.0
20260506031003 8 52 3.2 6.4 0.08 2.13 0.89 96 1006.9
20260506030717 8 57 3.2 6.4 0.08 2.13 0.89 97 1007.0
20260506030004 8 37 1.6 6.4 0.05 2.11 0.89 97 1007.0
20260506025503 8 22 1.6 4.8 0.08 2.11 0.89 97 1007.1
20260506025003 8 13 1.6 6.4 0.08 2.11 0.89 97 1007.1
20260506024503 8 22 1.6 8.0 0.10 2.11 0.89 97 1007.2
20260506024003 8 54 3.2 8.0 0.10 2.11 0.89 97 1007.2
20260506023503 8 66 3.2 9.7 0.10 2.11 0.86 97 1007.2
20260506023003 8 70 3.2 9.7 0.10 2.11 0.86 97 1007.2
20260506022503 8 70 3.2 8.0 0.13 2.11 0.86 97 1007.2
20260506022003 8 72 3.2 8.0 0.13 2.08 0.84 97 1007.3
20260506021503 8 66 3.2 6.4 0.13 2.08 0.84 97 1007.2
20260506021218 8 67 3.2 6.4 0.13 2.06 0.81 97 1007.3
20260506020503 8 60 3.2 6.4 0.15 2.06 0.81 97 1007.3
20260506020003 8 70 3.2 6.4 0.15 2.08 0.81 97 1007.2
20260506015503 8 79 1.6 6.4 0.15 2.08 0.79 97 1007.2
20260506015003 8 79 1.6 9.7 0.18 2.11 0.79 97 1007.2
20260506014503 8 70 3.2 9.7 0.15 2.08 0.79 97 1007.3
20260506014003 8 47 3.2 12.9 0.18 2.13 0.79 97 1007.2
20260506013719 8 47 3.2 12.9 0.18 2.13 0.76 97 1007.2
20260506013218 8 62 3.2 8.0 0.20 2.16 0.76 97 1007.3
20260506012504 8 68 3.2 8.0 0.23 2.16 0.74 97 1007.3
20260506012218 8 67 3.2 9.7 0.23 2.16 0.74 97 1007.2
20260506011503 8 78 3.2 9.7 0.23 2.13 0.71 97 1007.3
20260506011003 8 79 1.6 8.0 0.23 2.11 0.71 97 1007.3
20260506010503 8 77 3.2 9.7 0.23 2.11 0.69 97 1007.3
20260506010009 8 83 3.2 9.7 0.23 2.08 0.66 97 1007.3
20260506005503 8 76 3.2 9.7 0.23 2.06 0.64 97 1007.4
20260506005003 8 70 3.2 9.7 0.23 2.03 0.61 97 1007.4
20260506004504 9 79 3.2 9.7 0.25 2.03 0.61 97 1007.4
20260506004003 9 72 1.6 9.7 0.25 2.03 0.61 97 1007.4
20260506003503 9 66 1.6 8.0 0.25 2.01 0.58 97 1007.4
20260506003009 9 57 1.6 8.0 0.25 1.98 0.56 97 1007.5
20260506002503 9 60 1.6 6.4 0.23 1.93 0.51 97 1007.5
20260506002003 9 76 1.6 6.4 0.23 1.93 0.51 97 1007.5
20260506001718 9 61 3.2 6.4 0.23 1.93 0.51 97 1007.5
20260506001003 9 28 1.6 8.0 0.23 1.88 0.46 97 1007.6
20260506000503 9 41 1.6 6.4 0.23 1.85 0.43 97 1007.6
20260506000004 9 69 1.6 6.4 0.23 1.83 0.43 97 1007.7
20260505235504 9 79 1.6 6.4 0.23 1.83 0.41 97 1007.7
20260505235003 9 78 3.2 8.0 0.20 1.80 0.38 97 1007.7
20260505234503 9 75 3.2 9.7 0.20 1.78 0.36 97 1007.8
20260505234003 9 76 3.2 14.5 0.20 1.75 0.33 97 1007.9
20260505233503 9 80 3.2 14.5 0.18 1.75 0.33 97 1007.8
20260505233008 9 71 3.2 12.9 0.18 1.73 0.30 97 1007.9
20260505232503 9 63 3.2 12.9 0.20 1.73 0.30 97 1007.8
20260505232003 9 76 3.2 11.3 0.20 1.70 0.28 97 1007.9
20260505231503 9 67 3.2 11.3 0.20 1.68 0.25 97 1007.9
20260505231003 9 64 3.2 9.7 0.20 1.65 0.23 97 1008.0
20260505230504 9 72 4.8 9.7 0.20 1.65 0.23 97 1007.9
20260505230003 9 75 3.2 9.7 0.20 1.63 0.20 97 1007.9
20260505225504 9 73 3.2 9.7 0.23 1.60 0.18 97 1008.0
20260505225003 9 79 3.2 9.7 0.28 1.60 0.18 97 1008.0
20260505224503 9 82 3.2 9.7 0.30 1.57 0.15 97 1008.0
20260505224003 9 73 3.2 9.7 0.30 1.55 0.15 97 1008.1
20260505223718 9 72 3.2 9.7 0.30 1.55 0.15 97 1008.1
20260505223003 9 75 3.2 9.7 0.30 1.55 0.13 97 1008.2
20260505222503 9 82 1.6 6.4 0.33 1.55 0.10 97 1008.2
20260505222003 9 85 3.2 9.7 0.36 1.52 0.08 97 1008.1
20260505221503 9 79 3.2 9.7 0.38 1.50 0.05 97 1008.3
20260505221217 9 77 3.2 9.7 0.38 1.47 0.05 97 1008.3
20260505220503 9 72 3.2 9.7 0.41 1.45 0.03 97 1008.3
20260505220004 9 72 3.2 9.7 0.43 1.45 0.00 97 1008.3
20260505215504 9 74 3.2 11.3 0.38 1.37 1.37 97 1008.3
20260505215003 9 74 3.2 11.3 0.36 1.35 1.35 97 1008.4
20260505214503 9 72 3.2 9.7 0.33 1.30 1.30 96 1008.4
20260505214003 9 68 3.2 9.7 0.33 1.27 1.27 96 1008.4
20260505213504 9 68 3.2 9.7 0.33 1.27 1.27 96 1008.5
20260505213003 9 73 3.2 11.3 0.38 1.27 1.27 96 1008.5
20260505212503 9 77 3.2 11.3 0.36 1.22 1.22 96 1008.5
20260505212003 10 74 3.2 12.9 0.33 1.17 1.17 96 1008.5
20260505211503 10 74 4.8 12.9 0.33 1.14 1.12 96 1008.5
20260505211218 10 75 3.2 12.9 0.30 1.12 1.09 97 1008.5
20260505210503 10 76 3.2 12.9 0.30 1.09 1.07 97 1008.5
20260505210003 10 79 3.2 12.9 0.28 1.04 1.02 97 1008.6
20260505205503 10 76 3.2 9.7 0.28 1.02 0.99 97 1008.6
20260505205003 10 72 3.2 6.4 0.28 0.99 0.99 97 1008.6
20260505204504 10 74 3.2 11.3 0.28 0.99 0.97 97 1008.6